Tracking 29892 objects as of 21-Nov-2024
HD Live streaming from Space Station
objects crossing your sky now

COSMOS 1275 DEB

Track COSMOS 1275 DEB now!
10-day predictions


NORAD ID: 13490
Int'l Code: 1981-053GN
Perigee: 932.8 km
Apogee: 1,030.1 km
Inclination: 82.8 °
Period: 104.6 minutes
Semi major axis: 7352 km
RCS: 0.0312 m2 (small)
Launch date: June 4, 1981
Source: Commonwealth of Independent States (former USSR) (CIS)
Launch site: PLESETSK MISSILE AND SPACE COMPLEX (PKMTR)

Note: This is SATELLITE DEBRIS
Your satellite tracking list
Your tracking list is empty




NASA's NSSDC Master Catalog

Two Line Element Set (TLE):
1 13490U 81053GL  24325.07717535  .00000430  00000-0  41424-3 0  9990
2 13490  82.8353 180.2093 0066163 256.6293 260.3225 13.77075464130149
Source of the keplerian elements: AFSPC